Snowfall_Accumulation
0.0 0.0 0.0 0.0 0.0 0.0 0.0 0.0 0.0 0.0 0.0 0.0 0.0 0.0 0.0 0.0 0.0 0.0 0.0 0.0 0.0 0.0 0.0 0.0 0.0 0.0 0.0 0.0 0.0 0.0 0.0 0.0 0.0 0.0 0.0 0.0 0.0 0.0 0.0 0.0 0.0 0.0 0.0
0.0 0.0 0.0 0.0 0.0 0.0 0.0 0.0 0.0 0.0 0.0 0.0 0.0 0.0 0.0 0.0 0.0 0.0 0.0 0.0 0.0 0.0 0.0 0.0 0.0 0.0 0.0 0.0 0.0 0.0 0.0 0.0 0.0 0.0 0.0 0.0 0.0 0.0 0.0 0.0 0.0 0.0 0.0
0.0 0.0 0.0 0.0 0.0 0.0 0.0 0.0 0.0 0.0 0.0 0.0 0.0 0.0 0.0 0.0 0.0 0.0 0.0 0.0 0.0 0.0 0.0 0.0 0.0 0.0 0.0 0.0 0.0 0.0 0.0 0.0 0.0 0.0 0.0 0.0 0.0 0.0 0.0 0.0 0.0 0.0 0.0
0.0 0.0 0.0 0.0 0.0 0.0 0.0 0.0 0.0 0.0 0.0 0.0 0.0 0.0 0.0 0.0 0.0 0.0 0.0 0.0 0.0 0.0 0.0 0.0 0.0 0.0 0.0 0.0 0.0 0.0 0.0 0.0 0.0 0.0 0.0 0.0 0.0 0.0 0.0 0.0 0.0 0.0 0.0
0.0 0.0 0.0 0.0 0.0 0.0 0.0 0.0 0.0 0.0 0.0 0.0 0.0 0.0 0.0 0.0 0.0 0.0 0.0 0.0 0.0 0.0 0.0 0.0 0.0 nan nan nan 0.0 0.0 0.0 0.0 0.0 0.0 0.0 0.0 0.0 0.0 0.0 0.0 0.0 0.0 0.2
0.0 0.0 0.0 0.0 0.0 0.0 0.0 0.0 0.0 0.0 0.0 0.0 0.0 0.0 0.0 0.0 nan nan 0.0 0.0 0.0 0.0 0.0 0.0 0.0 0.0 0.0 nan nan nan nan 0.0 0.1 0.1 0.1 0.1 0.0 0.0 0.0 0.0 0.1 0.5 1.2
0.0 0.0 0.0 0.0 0.0 0.0 0.0 0.0 0.0 0.0 0.0 0.0 0.0 0.0 0.0 0.0 nan nan nan 0.1 0.2 0.1 0.1 0.0 0.0 0.0 nan 0.0 nan nan nan nan 0.0 0.1 0.3 0.1 0.1 0.0 0.0 0.1 0.1 0.2 0.2
0.0 0.0 0.0 0.0 0.0 0.0 0.0 0.0 0.0 0.0 0.0 0.0 0.0 0.0 0.0 0.0 nan nan nan 0.2 0.3 0.1 0.1 0.0 0.1 0.1 0.1 0.0 0.1 0.2 0.1 0.0 0.0 0.0 0.0 0.0 0.0 0.0 0.0 0.0 0.1 0.1 0.4
0.0 0.0 0.0 0.0 0.0 0.0 0.0 0.0 0.0 0.0 0.0 0.0 0.0 0.0 0.0 0.1 nan nan 0.5 1.0 1.0 0.4 0.1 0.1 0.1 0.3 nan nan 0.8 1.9 0.7 0.2 nan nan nan nan nan nan nan 0.5 2.3 2.4 6.3
0.0 0.0 0.0 0.0 0.0 0.0 0.0 0.0 0.0 0.0 0.0 0.3 0.1 0.0 nan 0.8 nan nan nan 3.7 4.1 1.9 0.6 0.3 nan 0.2 nan nan 1.4 1.8 2.1 0.6 0.2 0.2 0.2 0.1 nan nan nan 0.2 0.8 2.1 2.5
0.0 0.0 0.0 0.0 0.0 0.0 0.0 0.0 0.0 0.1 0.2 1.3 2.8 0.8 0.5 0.8 1.5 nan nan 3.9 3.1 2.3 1.6 1.4 1.1 nan nan nan nan 1.9 1.1 0.2 0.3 0.7 0.6 0.8 0.5 0.2 0.5 0.4 0.3 1.3 2.1
0.0 0.0 0.0 0.0 0.0 0.0 0.0 0.0 0.0 0.2 0.6 4.4 6.0 3.3 2.4 2.4 nan nan nan nan nan 5.2 2.3 1.7 1.2 nan nan nan 1.7 nan nan 0.9 4.7 4.0 2.9 2.1 1.9 1.6 0.5 0.5 0.2 0.5 0.5
0.0 0.0 0.0 0.0 0.0 0.0 0.0 0.1 0.5 0.1 1.3 3.6 4.3 3.5 4.5 2.3 1.7 nan nan nan nan 5.3 3.2 2.5 nan nan nan 1.3 nan nan 0.8 4.2 4.6 5.6 3.3 1.9 1.3 0.9 0.6 1.1 1.2 1.0 1.1
0.0 0.0 0.0 0.0 0.0 0.0 0.0 0.2 0.8 1.3 2.2 2.1 3.7 4.3 4.8 2.1 2.3 2.0 2.6 2.7 nan 2.7 1.0 2.6 0.6 2.2 0.9 1.4 2.8 4.2 5.0 5.3 5.1 4.1 2.9 1.5 1.6 2.7 3.0 1.6 3.1 3.6 4.7
0.0 0.0 0.0 0.3 0.1 0.2 0.1 0.6 1.5 0.7 3.0 5.5 3.1 4.5 9.7 9.8 3.8 4.2 4.8 5.0 4.6 2.5 3.5 7.1 3.9 2.9 3.0 2.7 3.5 3.1 2.9 3.1 4.5 4.5 3.9 3.1 2.8 2.5 3.1 3.7 3.4 3.6 6.0
0.1 0.2 1.1 1.6 1.2 1.1 1.2 1.4 nan nan nan nan nan 8.8 9.0 nan nan nan nan nan nan nan 3.4 5.4 11.0 12.1 6.9 3.5 5.0 4.6 3.9 3.2 3.1 3.6 5.3 3.7 3.7 4.2 4.7 5.8 5.0 5.3 6.3
1.0 1.1 1.7 1.6 1.6 1.7 1.9 1.9 3.1 3.7 nan nan nan nan nan nan nan nan nan nan nan nan 5.6 5.8 13.6 15.7 9.0 3.5 3.9 3.7 5.0 4.7 2.3 3.5 4.6 5.7 5.9 5.2 7.1 6.9 7.6 7.1 7.3
2.4 1.0 2.4 2.1 2.0 2.4 3.8 4.0 3.9 5.5 8.4 7.1 nan nan nan nan nan nan nan nan 3.9 nan 3.0 5.4 8.6 9.5 4.7 2.9 3.4 4.1 4.6 6.7 7.1 5.3 7.5 10.1 11.6 8.3 7.8 5.9 5.9 9.0 7.2
1.0 2.4 5.0 6.4 6.5 5.4 5.7 5.6 5.1 6.1 6.7 5.9 4.9 5.6 4.5 nan nan nan nan 6.1 5.7 4.3 3.2 2.8 5.8 4.7 4.9 3.8 12.2 13.0 16.6 15.4 15.2 18.8 11.0 10.6 21.2 6.3 7.9 6.1 7.0 6.1 5.8
0.6 0.2 2.6 4.7 5.7 5.9 4.8 5.6 5.1 6.2 6.2 6.8 6.4 6.4 6.8 4.6 16.3 24.3 16.7 21.7 14.7 6.1 6.6 4.0 4.2 4.5 7.3 6.9 15.5 22.8 21.1 20.8 15.4 11.2 20.2 27.7 25.3 12.5 10.8 9.4 12.0 10.8 5.7
1.2 1.8 1.1 3.5 4.0 4.8 6.3 6.7 7.0 8.3 8.2 8.0 13.0 20.0 2.9 7.7 12.1 12.4 10.1 14.0 10.1 9.0 13.7 5.4 8.0 9.7 8.6 10.6 5.7 12.9 5.7 26.9 11.5 11.4 11.1 11.5 44.2 15.1 9.3 9.8 11.0 8.3 6.2
3.0 3.3 4.7 6.3 5.6 8.7 6.3 6.1 9.0 8.4 8.5 9.5 12.2 12.1 4.3 15.1 10.4 10.6 10.5 16.5 26.3 11.2 8.8 9.5 7.3 6.3 7.0 6.7 8.0 23.9 17.6 23.1 20.4 15.2 13.5 12.2 10.4 12.2 10.1 10.5 11.7 12.1 8.6
5.3 9.2 5.6 3.7 5.5 8.0 12.9 6.6 11.1 14.3 12.3 15.7 10.6 10.7 11.8 16.5 16.1 10.9 14.9 24.4 13.4 15.4 13.5 10.1 18.5 10.4 11.1 14.3 13.1 9.2 13.4 12.3 13.5 15.3 16.5 17.2 10.8 12.3 18.0 13.2 10.7 11.2 11.1
6.6 12.1 6.6 11.4 14.6 8.2 18.7 23.8 17.3 8.5 12.9 16.9 27.3 22.1 18.2 18.5 31.4 24.8 26.6 32.8 21.8 27.7 26.5 24.3 10.6 8.1 8.2 24.5 16.6 12.9 7.6 13.3 9.4 9.9 10.2 14.9 12.0 10.3 14.4 11.2 11.4 11.0 12.5
14.6 18.1 18.2 13.1 12.9 23.6 28.4 22.5 23.7 27.1 25.3 29.1 31.8 26.3 12.8 22.2 17.3 35.1 28.9 21.8 18.0 27.3 15.9 18.8 15.9 11.1 12.8 9.5 8.3 5.4 7.1 4.1 8.7 4.4 10.0 8.0 11.6 11.3 11.7 11.1 14.3 11.3 10.9
9.9 10.8 14.0 14.4 14.9 21.4 22.2 30.0 31.2 27.9 26.5 30.2 29.6 32.0 25.2 19.2 18.7 31.1 22.5 20.0 16.8 15.9 14.9 16.5 14.6 11.1 9.7 10.1 6.3 5.5 5.0 4.6 14.0 4.6 14.8 8.3 12.7 13.3 13.6 11.7 9.9 12.5 8.8
Water_Equivalent
0.00 0.00 0.00 0.00 0.00 0.00 0.00 0.00 0.00 0.00 0.00 0.00 0.00 0.00 0.00 0.00 0.00 0.00 0.00 0.00 0.00 0.00 0.00 0.00 0.00 0.00 0.00 0.00 0.00 0.00 0.00 0.00 0.00 0.00 0.00 0.00 0.00 0.00 0.00 0.00 0.00 0.00 0.00
0.00 0.00 0.00 0.00 0.00 0.00 0.00 0.00 0.00 0.00 0.00 0.00 0.00 0.00 0.00 0.00 0.00 0.00 0.00 0.00 0.00 0.00 0.00 0.00 0.00 0.00 0.00 0.00 0.00 0.00 0.00 0.00 0.00 0.00 0.00 0.00 0.00 0.00 0.00 0.00 0.00 0.00 0.00
0.00 0.00 0.00 0.00 0.00 0.00 0.00 0.00 0.00 0.00 0.00 0.00 0.00 0.00 0.00 0.00 0.00 0.00 0.00 0.00 0.00 0.00 0.00 0.00 0.00 0.00 0.00 0.00 0.00 0.00 0.00 0.00 0.00 0.00 0.00 0.00 0.00 0.00 0.00 0.00 0.00 0.00 0.00
0.00 0.00 0.00 0.00 0.00 0.00 0.00 0.00 0.00 0.00 0.00 0.00 0.00 0.00 0.00 0.00 0.00 0.00 0.00 0.00 0.00 0.00 0.00 0.00 0.00 0.00 0.00 0.00 0.00 0.00 0.00 0.00 0.00 0.00 0.00 0.00 0.00 0.00 0.00 0.00 0.00 0.00 0.00
0.00 0.00 0.00 0.00 0.00 0.00 0.00 0.00 0.00 0.00 0.00 0.00 0.00 0.00 0.00 0.00 0.00 0.00 0.00 0.00 0.00 0.00 0.00 0.00 0.00 nan nan nan 0.00 0.00 0.00 0.00 0.00 0.00 0.00 0.00 0.00 0.00 0.00 0.00 0.00 0.01 0.04
0.00 0.00 0.00 0.00 0.00 0.00 0.00 0.00 0.00 0.00 0.00 0.00 0.00 0.00 0.00 0.00 nan nan 0.00 0.00 0.00 0.00 0.01 0.00 0.00 0.00 0.00 nan nan nan nan 0.00 0.01 0.02 0.01 0.01 0.00 0.00 0.00 0.00 0.03 0.11 0.24
0.00 0.00 0.00 0.00 0.00 0.00 0.00 0.00 0.00 0.00 0.00 0.00 0.00 0.00 0.00 0.00 nan nan nan 0.02 0.03 0.02 0.02 0.01 0.00 0.00 nan 0.00 nan nan nan nan 0.00 0.01 0.04 0.01 0.01 0.00 0.00 0.02 0.03 0.04 0.03
0.00 0.00 0.00 0.00 0.00 0.00 0.00 0.00 0.00 0.00 0.00 0.00 0.00 0.00 0.00 0.00 nan nan nan 0.04 0.06 0.03 0.02 0.01 0.02 0.03 0.02 0.01 0.02 0.04 0.02 0.01 0.00 0.00 0.00 0.00 0.00 0.00 0.00 0.00 0.01 0.03 0.11
0.00 0.00 0.00 0.00 0.00 0.00 0.00 0.00 0.00 0.00 0.00 0.00 0.00 0.00 0.01 0.02 nan nan 0.10 0.20 0.19 0.08 0.03 0.04 0.03 0.06 nan nan 0.13 0.28 0.11 0.04 nan nan nan nan nan nan nan 0.12 0.44 0.41 0.94
0.00 0.00 0.00 0.00 0.00 0.00 0.00 0.00 0.00 0.00 0.01 0.12 0.02 0.01 nan 0.18 nan nan nan 0.66 0.69 0.37 0.12 0.06 nan 0.04 nan nan 0.21 0.27 0.30 0.09 0.03 0.05 0.04 0.02 nan nan nan 0.03 0.13 0.34 0.40
0.00 0.00 0.00 0.00 0.00 0.00 0.00 0.00 0.00 0.01 0.05 0.36 0.78 0.22 0.12 0.16 0.30 nan nan 0.69 0.53 0.39 0.28 0.26 0.24 nan nan nan nan 0.28 0.17 0.03 0.05 0.12 0.10 0.15 0.11 0.05 0.13 0.10 0.06 0.23 0.34
0.00 0.00 0.00 0.00 0.00 0.00 0.00 0.00 0.00 0.03 0.12 0.93 1.38 0.71 0.49 0.48 nan nan nan nan nan 0.82 0.37 0.30 0.23 nan nan nan 0.37 nan nan 0.20 0.83 0.67 0.49 0.34 0.32 0.27 0.11 0.10 0.04 0.12 0.12
0.00 0.00 0.00 0.00 0.00 0.00 0.00 0.02 0.12 0.02 0.24 0.68 0.97 0.72 0.76 0.44 0.33 nan nan nan nan 0.85 0.53 0.43 nan nan nan 0.45 nan nan 0.25 0.68 0.75 0.88 0.52 0.30 0.20 0.16 0.10 0.18 0.19 0.18 0.21
0.00 0.00 0.00 0.00 0.00 0.00 0.00 0.04 0.15 0.24 0.37 0.38 0.69 0.76 0.83 0.38 0.42 0.36 0.45 0.47 nan 0.44 0.24 0.43 0.21 0.43 0.28 0.32 0.53 0.70 0.82 0.85 0.78 0.63 0.43 0.23 0.25 0.42 0.44 0.25 0.44 0.48 0.57
0.00 0.01 0.00 0.05 0.03 0.04 0.02 0.13 0.26 0.14 0.44 0.78 0.51 0.75 1.36 1.25 0.58 0.66 0.71 0.75 0.70 0.41 0.61 1.03 0.59 0.43 0.43 0.40 0.53 0.48 0.45 0.49 0.66 0.68 0.60 0.46 0.41 0.35 0.45 0.57 0.48 0.44 0.68
0.02 0.03 0.20 0.27 0.22 0.19 0.21 0.26 nan nan nan nan nan 1.33 1.49 nan nan nan nan nan nan nan 0.49 0.72 1.36 1.51 0.89 0.47 0.70 0.65 0.58 0.52 0.48 0.54 0.81 0.56 0.55 0.64 0.63 0.75 0.65 0.62 0.67
0.14 0.15 0.28 0.30 0.27 0.29 0.33 0.32 0.45 0.65 nan nan nan nan nan nan nan nan nan nan nan nan 0.76 0.74 1.46 1.74 1.10 0.46 0.51 0.50 0.67 0.69 0.32 0.53 0.69 0.85 0.85 0.71 0.95 0.87 0.95 0.85 0.80
0.32 0.33 0.35 0.33 0.32 0.40 0.59 0.58 0.57 0.71 1.05 0.94 nan nan nan nan nan nan nan nan 0.50 nan 0.41 0.69 1.03 1.12 0.59 0.37 0.43 0.48 0.58 0.89 0.91 0.73 1.05 1.37 1.53 1.06 0.99 0.73 0.73 0.98 0.79
0.14 0.34 0.68 0.86 0.93 0.81 0.88 0.84 0.73 0.80 0.82 0.70 0.66 0.90 0.92 nan nan nan nan 0.79 0.67 0.54 0.42 0.38 0.75 0.59 0.60 0.48 1.39 1.50 1.84 1.71 1.76 2.23 1.39 1.32 2.89 0.83 0.99 0.77 0.83 0.91 0.89
0.10 0.04 0.44 0.65 0.78 0.81 0.71 0.76 0.65 0.77 0.74 0.79 0.71 0.70 0.79 0.64 1.84 2.74 1.88 2.61 1.68 0.74 0.83 0.51 0.55 0.60 0.88 0.78 1.69 2.57 2.36 2.35 1.69 1.27 2.28 3.35 3.11 1.42 1.16 1.00 1.28 1.13 0.61
0.17 0.26 0.35 0.50 0.55 0.64 0.82 0.81 0.74 0.90 0.93 0.84 1.38 2.21 0.96 0.81 1.26 1.31 1.06 1.49 1.09 0.96 1.48 0.66 0.99 1.15 1.08 1.29 0.72 1.42 0.68 3.09 1.25 1.25 1.20 1.27 5.43 1.61 0.97 1.03 1.16 0.86 0.63
0.41 0.46 0.65 0.84 0.75 1.11 0.80 0.76 0.97 0.87 0.87 0.98 1.26 1.28 1.42 1.60 1.06 1.08 1.09 1.78 2.94 1.23 0.98 1.15 0.83 0.74 0.80 0.83 0.96 2.81 1.92 2.58 2.29 1.65 1.44 1.29 1.10 1.28 1.05 1.08 1.22 1.26 0.89
0.74 1.23 0.74 0.49 0.71 2.27 1.51 0.80 1.16 1.49 1.27 1.65 1.07 1.09 1.21 1.71 1.66 1.08 1.52 2.67 1.39 1.63 1.45 1.13 2.02 1.08 1.26 1.57 1.60 1.12 1.42 1.29 1.43 1.66 1.77 1.86 1.12 1.30 1.94 1.38 1.11 1.15 1.15
0.94 1.61 0.86 1.48 1.79 1.01 2.04 2.67 1.87 2.48 1.33 1.79 3.06 2.39 1.91 1.94 3.54 2.72 2.89 3.73 2.36 3.11 2.97 2.71 1.10 0.84 0.83 2.73 1.79 1.42 0.87 1.49 1.15 1.12 1.28 1.60 1.26 1.33 1.52 1.16 1.18 1.14 1.29
1.95 2.37 2.35 1.63 1.59 2.76 3.36 2.48 2.62 3.06 2.84 3.29 3.64 2.91 1.30 2.38 1.80 4.05 3.21 2.33 1.89 3.03 1.65 1.99 1.67 1.24 1.33 0.97 0.84 0.54 0.93 1.34 1.36 1.45 1.16 0.94 1.28 1.21 1.21 1.15 1.50 1.16 1.12
1.31 1.46 1.83 1.80 1.84 2.62 2.65 3.52 3.56 3.18 3.01 3.60 3.65 3.77 2.88 2.06 2.01 3.52 2.43 2.15 1.76 1.65 1.60 1.74 1.56 1.15 1.01 1.04 0.64 1.61 1.66 1.51 1.64 1.52 1.72 1.01 1.40 1.44 1.42 1.23 1.04 1.30 0.92
SL_Ratio
nan nan nan nan nan nan nan nan nan nan nan nan nan nan nan nan nan nan nan nan nan nan nan nan nan nan nan nan nan nan nan nan nan nan nan nan nan nan nan nan nan nan nan
nan nan nan nan nan nan nan nan nan nan nan nan nan nan nan nan nan nan nan nan nan nan nan nan nan nan nan nan nan nan nan nan nan nan nan nan nan nan nan nan nan nan nan
nan nan nan nan nan nan nan nan nan nan nan nan nan nan nan nan nan nan nan nan nan nan nan nan nan nan nan nan nan nan nan nan nan 0.0 nan nan nan nan nan nan nan nan nan
nan nan nan nan nan nan nan nan nan nan nan nan nan nan nan nan nan nan nan nan nan nan nan nan nan nan nan nan nan nan nan nan nan nan nan nan nan nan nan nan 4.3 nan nan
nan nan nan nan nan nan nan nan nan nan nan nan nan nan nan nan nan nan nan nan nan nan nan nan nan nan nan nan nan nan 5.0 6.0 7.3 7.3 7.1 4.5 6.0 6.0 7.1 5.7 6.7 3.4 3.5
nan nan nan nan nan nan nan nan nan nan nan nan nan nan nan nan nan nan nan nan 0.0 nan 3.1 5.0 nan nan nan nan nan nan nan 7.5 7.6 7.8 7.1 7.4 8.3 7.1 6.7 6.4 4.8 4.5 5.0
nan nan nan nan nan nan nan nan nan nan nan nan nan nan nan nan nan nan nan 5.1 5.0 4.1 3.5 3.2 2.5 nan nan 5.0 nan nan nan nan 2.9 6.6 7.7 7.5 7.6 5.0 10.0 5.2 4.8 6.2 6.0
nan nan nan nan nan nan nan nan nan nan nan nan nan nan nan nan nan nan nan 4.8 4.9 4.3 3.6 3.2 3.8 3.8 3.5 3.8 4.2 5.2 4.4 3.9 nan nan 6.7 7.1 6.7 10.0 6.7 6.7 4.0 4.7 3.8
nan nan nan nan nan nan nan nan nan nan nan nan nan 3.3 4.4 3.5 nan nan 5.1 5.0 5.2 4.6 4.0 3.8 4.4 5.4 nan nan 5.9 6.7 6.3 5.1 nan nan nan nan nan nan nan 4.2 5.3 5.9 6.7
nan nan nan nan nan nan nan nan nan 5.6 5.6 2.6 4.2 4.1 nan 4.6 nan nan nan 5.6 5.9 5.1 5.2 4.6 nan 4.5 nan nan 6.4 6.8 7.1 6.5 4.9 4.2 4.1 3.5 nan nan nan 6.0 6.1 6.0 6.2
nan nan nan nan nan nan nan nan nan 5.7 4.0 3.7 3.6 3.7 4.3 4.6 5.0 nan nan 5.7 5.8 5.9 5.6 5.3 4.7 nan nan nan nan 6.7 6.8 5.4 5.9 6.0 5.7 5.2 4.7 4.5 3.9 3.6 4.4 5.6 6.2
10.0 nan nan nan nan nan nan nan 5.0 5.3 5.0 4.7 4.3 4.6 4.9 5.0 nan nan nan nan nan 6.4 6.3 5.6 5.3 nan nan nan 4.6 nan nan 4.6 5.7 5.9 6.0 6.1 6.1 5.7 5.0 4.7 4.8 4.6 4.4
nan nan nan nan nan nan 6.3 5.8 4.2 4.8 5.6 5.3 4.4 4.9 5.9 5.3 5.3 nan nan nan nan 6.3 6.0 5.7 nan nan nan 3.0 nan nan 3.0 6.2 6.1 6.4 6.3 6.3 6.1 5.5 6.1 6.4 6.3 5.7 5.4
nan nan nan nan nan nan 4.5 5.2 5.4 5.3 5.8 5.6 5.4 5.6 5.8 5.6 5.5 5.4 5.8 5.7 nan 6.0 4.0 6.1 3.0 5.1 3.0 4.3 5.3 6.0 6.1 6.3 6.5 6.5 6.8 6.6 6.5 6.5 6.8 6.2 7.1 7.6 8.2
4.7 4.7 0.0 5.5 5.6 5.5 5.0 5.0 5.9 5.0 6.8 7.1 6.1 6.0 7.1 7.8 6.6 6.4 6.7 6.6 6.6 6.2 5.7 6.9 6.6 6.7 6.9 6.8 6.7 6.5 6.4 6.4 6.7 6.7 6.6 6.7 6.7 7.0 6.9 6.4 7.0 8.1 8.8
6.0 5.5 5.8 5.8 5.7 5.5 5.6 5.3 nan nan nan nan nan 6.6 6.0 nan nan nan nan nan nan nan 6.9 7.5 8.1 8.0 7.8 7.4 7.2 7.0 6.8 6.2 6.6 6.6 6.5 6.6 6.7 6.5 7.5 7.8 7.6 8.5 9.3
7.3 7.2 6.1 5.4 5.9 5.8 5.8 5.9 7.0 5.7 nan nan nan nan nan nan nan nan nan nan nan nan 7.4 7.8 9.3 9.0 8.1 7.6 7.6 7.4 7.6 6.8 7.2 6.6 6.6 6.8 7.0 7.4 7.5 7.9 8.0 8.3 9.2
7.5 3.0 6.8 6.4 6.3 6.1 6.4 6.8 6.9 7.7 8.0 7.6 nan nan nan nan nan nan nan nan 7.7 nan 7.2 7.8 8.4 8.5 8.0 7.7 7.9 8.4 7.9 7.5 7.8 7.3 7.1 7.3 7.6 7.9 7.9 8.1 8.0 9.2 9.2
6.9 6.9 7.3 7.4 7.0 6.6 6.5 6.7 7.0 7.6 8.1 8.5 7.4 6.3 5.0 nan nan nan nan 7.7 8.5 8.0 7.7 7.5 7.7 7.9 8.1 7.9 8.8 8.7 9.0 9.0 8.7 8.4 7.9 8.0 7.4 7.6 8.0 8.0 8.4 6.7 6.5
6.3 4.3 6.0 7.2 7.3 7.2 6.7 7.4 7.8 8.0 8.4 8.6 8.9 9.0 8.6 7.1 8.8 8.9 8.9 8.3 8.7 8.1 8.0 8.0 7.6 7.6 8.3 8.7 9.2 8.8 8.9 8.9 9.1 8.8 8.9 8.3 8.1 8.8 9.3 9.4 9.4 9.5 9.4
6.8 6.9 3.0 7.0 7.3 7.4 7.6 8.3 9.5 9.3 8.9 9.5 9.5 9.0 3.0 9.5 9.6 9.5 9.5 9.4 9.2 9.4 9.3 8.3 8.1 8.4 8.0 8.2 7.9 9.1 8.4 8.7 9.2 9.1 9.2 9.1 8.1 9.4 9.5 9.5 9.5 9.7 9.8
7.2 7.2 7.2 7.5 7.5 7.8 7.9 8.1 9.3 9.7 9.8 9.7 9.6 9.4 3.0 9.4 9.8 9.8 9.7 9.3 8.9 9.1 9.0 8.3 8.8 8.5 8.7 8.1 8.4 8.5 9.2 8.9 8.9 9.2 9.4 9.5 9.4 9.5 9.6 9.6 9.6 9.6 9.8
7.1 7.5 7.6 7.5 7.8 3.5 8.5 8.4 9.6 9.5 9.7 9.5 9.8 9.8 9.8 9.6 9.7 10.1 9.8 9.2 9.6 9.4 9.3 8.9 9.2 9.7 8.8 9.1 8.2 8.2 9.4 9.5 9.4 9.3 9.3 9.3 9.6 9.5 9.3 9.6 9.7 9.7 9.7
7.0 7.5 7.7 7.7 8.2 8.2 9.2 8.9 9.3 3.4 9.6 9.4 8.9 9.2 9.5 9.6 8.9 9.1 9.2 8.8 9.3 8.9 8.9 9.0 9.7 9.6 9.8 9.0 9.2 9.1 8.7 8.9 8.1 8.8 8.0 9.3 9.5 7.8 9.5 9.7 9.7 9.7 9.7
7.5 7.6 7.7 8.0 8.1 8.5 8.5 9.1 9.1 8.9 8.9 8.8 8.7 9.0 9.8 9.3 9.6 8.7 9.0 9.4 9.6 9.0 9.6 9.4 9.5 8.9 9.7 9.8 9.8 10.0 7.7 3.0 6.4 3.0 8.6 8.5 9.0 9.4 9.6 9.7 9.6 9.7 9.8
7.5 7.4 7.7 8.0 8.1 8.2 8.4 8.5 8.8 8.7 8.8 8.4 8.1 8.5 8.8 9.3 9.3 8.8 9.3 9.3 9.5 9.6 9.3 9.5 9.4 9.6 9.7 9.6 9.8 3.4 3.0 3.0 8.5 3.0 8.6 8.2 9.0 9.2 9.6 9.5 9.5 9.7 9.5